一网星座-0007星 (ONEWEB-0007 )

导读

ONEWEB-0007是英国OneWeb公司的低轨互联网卫星,于2019年2月27日发射入轨,属于OneWeb第一代星座组网卫星。该星座依托近地轨道部署,为全球提供低延迟宽带通信服务,覆盖偏远地区通信、海上通信、应急救援等场景,单星容量可达7.5Gbit/s,网络时延约30毫秒。卫星遵循空间碎片减缓规范,寿命末期将自动离轨,助力OneWeb构建全球天基互联网基础设施。

基本信息
目录编号:
44060
目录名称:
ONEWEB-0007
国际标识:
2019-010D
轨道中心:
EARTH
卫星名称:
一网星座-0007星
卫星全名:
一网星座-0007星 (ONEWEB-0007 )
卫星状态:
在轨 (已飞行2753 天)
发射日期:
2019-02-27 UTC
国别 :
英国 (GB)
星等 :
--
该卫星已列入 空间交会检测服务 Space Conjunction Data Service (SCDS) ,当前飞行风险评估等级: 无高风险
轨道信息
数据来源 国际轨道数据 AOE轨道数据
星历时间 2026-09-10T20:33:28+0800
22小时前
查看轨道信息
2026-09-10T07:00:00+0800
1天前
查看轨道信息
半长轴 7579.91km 7579.908km
偏心率 0.0002242 0.0002456
轨道倾角 87.897° 87.897°
近地点辐角 83.090° 76.442°
升交点赤经 242.203° 242.315°
平近点角 277.049° 129.826°
近地点 1200.073km 1199.909km
远地点 1203.473km 1203.633km
周期 109.460分钟 109.460分钟
每日圈数 13.15548 13.155487
详细信息
平衡模式:
三轴稳定
覆盖范围:
全球
运营商:
一网卫星公司
运营商所在国:
英国
制造商(研发单位):
空客防务与航天公司
制造商所在国:
法国大都会
使用方式:
暂无
卫星简介
OneWeb卫星网络由648颗重约125公斤的微型卫星组成,运行在1200公里的轨道上。 每颗卫星都能够提供至少每秒8千兆位的吞吐量,以使用其高吞吐量的Ku频段有效载荷为家庭和移动平台提供互联网接入。该卫星仍在工作。
2D轨道图
3D轨道图
轨道高度分析图
轨道倾角分析图
轨道综合分析图
查看轨道综合分析图
与全量物体交会距离演化趋势
与全量物体交会风险概率演化趋势